COSMOS 1275 DEB, 12648

Orbit data source: Space-Track

COSMOS 1275 DEB, 12648 is space debris in LEO originally from a launch on Thu, 04 Jun 1981 UTC launched from the Plesetsk Missile And Space Complex (PKMTR). Debris objects in space refer to the collection of defunct objects orbiting the Earth. Examples of debris include non-operational satellites, rocket bodies, and fragments generated from explosions, collisions, or faulty payload assembly.

Loading next visibility...
Identifier
12648, 1981-053C
Orbit
LEO
Country
Flag of CISCIS
Related business
Manufacturer
Unknown
Mission
Spacecraft
Bus & Motor
Unknown
Mass
Unknown
Launch date (UTC)
1981-06-04 (44 years ago)
Launch vehicle
Unknown
Launch site
Plesetsk Missile And Space Complex (PKMTR)
Object type
Payload
Rocket body
Debris
Shape & HBR
Unknown shape, 0.5 m
Radar Cross Section
Medium (>0.1 m² and <1 m²)

Expand to show TLE details & history
Last TLE update: 10 hours ago

TLE from 10 hours ago
0 COSMOS 1275 DEB
1 12648U 81053C   25291.05922980  .00000422  00000-0  38047-3 0  9995
2 12648  82.9731  27.7376 0015580 134.1031  39.3688 13.81609942224230
Epoch: 2025-10-18T01:25Z
TLE epoch observation values (Epoch: 2025-10-18T01:25:17.454Z)
Latitude
6.28942°
Longitude
158.84485°
Altitude
951.665 km
Speed
7.381 km/s
True Right ascension
13h 47m 51s
True Declination
6° 15' 11"
Sunlit
Object was in daylight at epoch
Visualization orbit readout
Latitude
Unknown
Longitude
Unknown
Altitude
Unknown
Speed
Unknown
Apparent Right ascension
Unknown
Apparent Declination
Unknown
Sunlit
N/A
Visualization observer readout
Local Sidereal Time
05:55:49
Azimuth
Unknown
Elevation
Unknown
Doppler factor
Unknown
Orbital elements
Apogee altitude
966.746 km
Perigee altitude
943.895 km
Semi-major axis
7,333.458 km
Eccentricity
0.00156
Inclination
82.9731°
RAAN
27.7376°
Arg. of periapsis
134.1031°
True anomaly
39.48222°
Mean anomaly
39.3688°
Eccentric anomaly
39.42549°
Mean motion
3.45605 °/min
Orbital period
104.17 mins
BSTAR
0.00038047
Loading maneuver chart data...
Computing Atmospheric mass density...

Documentation

Showing up to 5 results
|